CAPE
0 0 0 0 0 0 0 0 0 0 0 128 106 602 988 1021 760 677 1184 1037 1097 952 1145 1205 1147 1001 878 569 404 466 611 537 403 387 525 913 1125 1217 1315 1429 1665 1829 1729 1437 1212 1288 1332 1122 856
0 0 0 0 0 0 0 0 0 0 394 626 423 638 944 1351 1605 1607 1071 1025 860 907 1072 1295 1409 1207 954 815 668 660 824 835 665 504 534 763 1076 1336 1539 1764 1882 1761 1565 1567 1688 1834 1910 1470 983
0 0 0 0 0 0 0 0 0 130 277 3 116 69 770 1254 1866 1558 776 985 870 823 766 935 1235 1462 1420 1186 1101 1135 953 995 921 835 728 779 1030 1262 1485 1577 1553 1588 1606 1647 1739 1956 1775 1606 1158
0 0 0 0 0 0 0 0 0 175 8 0 93 277 722 1384 1799 1443 1087 813 402 158 76 310 555 832 1159 1463 1522 1494 1366 1150 1228 1161 1120 1058 991 1076 1159 1277 1460 1619 1733 1816 1864 1897 1459 1044 933
0 0 0 0 0 0 0 0 8 3 0 2 7 654 920 300 113 89 2 0 1 0 0 20 111 300 483 804 1087 1315 1535 1563 1493 1561 1579 1367 1181 1055 1060 1039 1133 1436 1738 1868 1989 1929 1742 1280 907
0 0 0 0 0 0 0 0 0 0 0 0 451 196 311 0 227 0 0 0 0 0 0 0 0 75 272 589 821 880 987 1144 1427 1691 1762 1878 1993 1796 1516 1278 1190 1259 1380 1633 2221 2300 2067 1645 1111
0 0 0 0 0 0 0 0 0 0 0 0 0 0 5 4 0 0 0 0 0 0 0 0 0 0 41 203 357 522 591 692 1006 1126 1334 1708 1910 2006 1987 1864 1660 1528 1483 1457 1462 1616 1740 1731 1385
0 0 0 0 0 0 0 0 0 0 0 0 0 3 252 1 0 0 0 0 0 0 0 0 0 0 0 0 116 284 340 412 536 738 991 1146 1207 1715 1936 2003 1962 1929 1826 1683 1615 1643 1689 1615 1359
0 0 0 0 0 0 0 0 0 0 0 0 0 0 0 0 0 0 0 0 0 0 0 0 0 0 0 0 0 0 0 3 107 221 485 958 1145 1057 1056 1267 1390 1496 1665 1779 1804 1772 1718 1648 1490
0 0 0 0 0 0 0 0 0 0 0 0 0 0 0 0 0 0 0 0 0 0 0 0 0 0 0 0 0 0 0 0 0 0 11 96 199 586 1131 1062 1053 915 1190 1328 1462 1580 1570 1551 1596
0 0 0 0 0 0 0 0 0 0 0 0 0 0 0 0 0 0 0 0 0 0 0 0 0 0 0 0 0 0 0 0 0 0 0 0 0 1 41 68 14 1 2 30 161 540 580 818 967
0 0 0 0 0 0 0 0 0 0 0 0 0 0 0 0 0 0 0 0 0 0 0 0 0 0 0 0 0 0 0 0 0 0 0 0 0 0 1 0 0 0 0 0 0 0 2 27 135
0 0 0 0 0 0 0 0 0 0 0 0 0 0 0 0 0 0 0 0 0 0 0 0 0 0 0 0 0 0 0 0 0 0 0 0 0 0 0 0 0 0 0 0 0 0 0 0 0
0 0 0 0 0 0 0 0 0 0 0 0 0 0 0 0 0 0 0 0 0 0 0 0 0 0 0 0 0 0 0 0 0 0 0 0 0 0 0 0 0 0 0 0 0 0 0 0 0
0 0 0 0 0 0 0 0 0 0 0 0 0 0 0 0 0 0 0 0 0 0 0 0 0 0 0 0 0 0 0 0 0 0 0 0 0 0 0 0 0 0 0 0 0 0 0 0 0
0 0 0 0 0 0 0 0 0 0 0 0 0 0 0 0 0 0 0 0 0 0 0 0 0 0 0 0 0 0 0 0 0 0 0 0 0 0 0 0 0 0 0 0 0 0 0 0 0
0 0 0 0 0 0 0 0 0 0 0 0 0 0 0 0 0 0 0 0 0 0 0 0 0 0 0 0 0 0 0 0 0 0 0 0 0 0 0 0 0 0 0 0 0 0 0 0 0
0 0 0 0 0 0 0 0 0 0 0 0 0 0 0 0 0 0 0 0 0 0 0 0 0 0 0 0 0 0 0 0 0 0 0 0 0 0 0 0 0 0 0 0 0 0 0 0 0
0 0 0 0 0 0 0 0 0 0 0 0 0 0 0 0 0 0 0 0 0 0 0 0 0 0 0 0 0 0 0 0 0 0 0 0 0 0 0 0 0 0 0 0 0 0 0 0 0
0 0 0 0 0 0 0 0 0 0 0 0 0 0 0 0 0 0 0 0 0 0 0 0 0 0 0 0 0 0 0 0 0 0 0 0 0 0 0 0 0 0 0 0 0 0 0 0 0
0 0 0 0 0 0 0 0 0 0 0 0 0 0 0 0 0 0 0 0 0 0 0 0 0 0 0 0 0 0 0 0 0 0 0 0 0 0 0 0 0 0 0 0 0 0 0 1 0
0 0 0 0 0 0 0 0 0 0 0 0 0 0 0 0 0 0 0 0 0 0 0 0 0 0 0 0 0 0 0 0 0 0 0 0 0 0 0 0 0 0 0 0 0 0 0 0 1
0 0 0 0 0 0 0 0 0 0 0 0 0 0 0 0 0 0 0 0 0 0 0 0 0 0 0 0 0 0 0 0 0 0 0 0 0 0 0 0 0 0 0 0 0 0 0 0 0
0 0 0 0 0 0 0 0 0 0 0 0 0 0 0 0 0 0 0 0 0 0 0 0 0 0 0 0 0 0 0 0 0 0 0 0 0 0 0 0 0 0 0 0 0 0 0 0 0
0 0 0 0 0 0 0 0 0 0 0 0 0 0 0 0 0 0 0 0 0 0 0 0 0 0 0 0 0 0 0 0 0 0 0 0 0 0 0 0 0 0 0 0 0 1 0 0 0
0 0 0 0 0 0 0 0 0 0 0 0 0 0 0 0 0 0 0 0 0 0 0 0 0 0 0 0 0 0 0 0 0 0 0 0 0 0 0 0 0 0 0 0 0 1 0 0 0
0 0 0 0 0 0 0 0 0 0 0 0 0 0 0 0 0 0 0 0 0 0 0 0 0 0 0 0 0 0 0 0 0 0 0 0 0 0 0 0 0 0 1 0 0 0 0 0 0
0 0 0 0 0 0 0 0 0 0 0 0 0 0 0 0 0 0 0 0 0 0 0 0 0 0 0 0 0 0 0 0 0 0 0 0 0 0 0 0 0 0 0 0 0 0 0 0 0
0 0 0 0 0 0 0 0 0 0 0 0 0 0 0 0 0 0 0 0 0 0 0 0 0 0 0 0 0 0 0 0 0 0 0 0 0 0 0 0 0 0 0 0 0 0 0 0 0
0 0 0 0 0 0 0 0 0 0 0 0 0 0 0 0 0 0 0 0 0 0 0 0 0 0 0 0 0 0 0 0 0 0 0 0 0 0 0 0 0 0 0 0 0 0 0 0 0
CIN
-0 -0 -0 -0 -0 -0 -0 -0 -0 -0 -0 -248 -240 -123 -122 -153 -122 -79 -217 -253 -261 -265 -226 -195 -214 -248 -251 -302 -341 -315 -279 -292 -306 -290 -252 -206 -183 -167 -149 -122 -91 -64 -63 -88 -102 -80 -69 -96 -126
-0 -0 -0 -0 -0 -0 -0 -0 -0 -0 -205 -191 -171 -164 -132 -97 -100 -113 -190 -251 -262 -262 -236 -178 -154 -195 -237 -252 -284 -291 -272 -257 -259 -272 -269 -228 -187 -149 -112 -81 -66 -70 -85 -75 -47 -36 -36 -66 -126
-0 -0 -0 -0 -0 -0 -0 -0 -0 -267 -243 -92 -222 -149 -182 -116 -64 -107 -242 -201 -242 -270 -313 -267 -195 -149 -163 -226 -220 -199 -235 -229 -226 -236 -244 -222 -177 -142 -111 -92 -87 -70 -61 -59 -46 -27 -35 -50 -90
-0 -0 -0 -0 -0 -0 -0 -0 -0 -253 -178 -0 -306 -218 -226 -138 -69 -121 -164 -231 -335 -459 -534 -436 -366 -291 -224 -180 -187 -181 -170 -200 -175 -174 -170 -171 -173 -160 -145 -122 -88 -68 -55 -35 -31 -26 -47 -71 -83
-0 -0 -0 -0 -0 -0 -0 -0 -261 -196 -0 -246 -322 -214 -204 -394 -488 -474 -141 -0 -96 -0 -0 -489 -545 -449 -382 -292 -251 -211 -161 -134 -145 -113 -98 -117 -139 -152 -147 -145 -114 -72 -42 -37 -26 -25 -31 -59 -85
-0 -0 -0 -0 -0 -0 -0 -0 -0 -0 -0 -0 -223 -303 -342 -0 -378 -0 -0 -0 -0 -0 -0 -0 -0 -571 -471 -369 -299 -285 -252 -212 -151 -103 -76 -43 -26 -42 -73 -105 -115 -103 -79 -43 -3 -2 -10 -31 -66
-0 -0 -0 -0 -0 -0 -0 -0 -0 -0 -0 -0 -0 -0 -105 -360 -0 -0 -0 -0 -0 -0 -0 -0 -0 -0 -490 -467 -394 -342 -324 -299 -219 -190 -145 -76 -37 -32 -34 -40 -49 -54 -53 -46 -46 -28 -17 -13 -30
-0 -0 -0 -0 -0 -0 -0 -0 -0 -0 -0 -0 -0 -99 -274 -68 -0 -0 -0 -0 -0 -0 -0 -0 -0 -0 -0 -0 -459 -374 -348 -334 -295 -248 -188 -165 -136 -62 -29 -21 -17 -15 -15 -20 -22 -21 -18 -13 -12
-0 -0 -0 -0 -0 -0 -0 -0 -0 -0 -0 -0 -0 -0 -0 -0 -0 -0 -0 -0 -0 -0 -0 -0 -0 -0 -0 -0 -0 -0 -0 -376 -419 -363 -270 -177 -130 -146 -136 -102 -83 -64 -31 -14 -18 -24 -27 -23 -26
-0 -0 -0 -0 -0 -0 -0 -0 -0 -0 -0 -0 -0 -0 -0 -0 -0 -0 -0 -0 -0 -0 -0 -0 -0 -0 -0 -0 -0 -0 -0 -0 -0 -0 -187 -401 -316 -200 -95 -103 -103 -129 -85 -62 -45 -29 -29 -33 -35
-0 -0 -0 -0 -0 -0 -0 -0 -0 -0 -0 -0 -0 -0 -0 -0 -0 -0 -0 -0 -0 -0 -0 -0 -0 -0 -0 -0 -0 -0 -0 -0 -0 -0 -0 -0 -0 -50 -401 -350 -220 -64 -63 -396 -294 -151 -139 -97 -79
-0 -0 -0 -0 -0 -0 -0 -0 -0 -0 -0 -0 -0 -0 -0 -0 -0 -0 -0 -0 -0 -0 -0 -0 -0 -0 -0 -0 -0 -0 -0 -0 -0 -0 -0 -0 -0 -0 -0 -0 -0 -0 -0 -0 -0 -0 -388 -296 -258
-0 -0 -0 -0 -0 -0 -0 -0 -0 -0 -0 -0 -0 -0 -0 -0 -0 -0 -0 -0 -0 -0 -0 -0 -0 -0 -0 -0 -0 -0 -0 -0 -0 -0 -0 -0 -0 -0 -0 -0 -0 -0 -0 -0 -0 -0 -0 -0 -0
-0 -0 -0 -0 -0 -0 -0 -0 -0 -0 -0 -0 -0 -0 -0 -0 -0 -0 -0 -0 -0 -0 -0 -0 -0 -0 -0 -0 -0 -0 -0 -0 -0 -0 -0 -0 -0 -0 -0 -0 -0 -0 -0 -0 -0 -0 -0 -0 -0
-0 -0 -0 -0 -0 -0 -0 -0 -0 -0 -0 -0 -0 -0 -0 -0 -0 -0 -0 -0 -0 -0 -0 -0 -0 -0 -0 -0 -0 -0 -0 -0 -0 -0 -0 -0 -0 -0 -0 -0 -0 -0 -0 -0 -0 -0 -0 -0 -0
-0 -0 -0 -0 -0 -0 -0 -0 -0 -0 -0 -0 -0 -0 -0 -0 -0 -0 -0 -0 -0 -0 -0 -0 -0 -0 -0 -0 -0 -0 -0 -0 -0 -0 -0 -0 -0 -0 -0 -0 -0 -0 -0 -0 -0 -0 -0 -0 -0
-0 -0 -0 -0 -0 -0 -0 -0 -0 -0 -0 -0 -0 -0 -0 -0 -0 -0 -0 -0 -0 -0 -0 -0 -0 -0 -0 -0 -0 -0 -0 -0 -0 -0 -0 -0 -0 -0 -0 -0 -0 -0 -0 -0 -0 -0 -0 -0 -0
-0 -0 -0 -0 -0 -0 -0 -0 -0 -0 -0 -0 -0 -0 -0 -0 -0 -0 -0 -0 -0 -0 -0 -0 -0 -0 -0 -0 -0 -0 -0 -0 -0 -0 -0 -0 -0 -0 -0 -0 -0 -0 -0 -0 -0 -0 -0 -0 -0
-0 -0 -0 -0 -0 -0 -0 -0 -0 -0 -0 -0 -0 -0 -0 -0 -0 -0 -0 -0 -0 -0 -0 -0 -0 -0 -0 -0 -0 -0 -0 -0 -0 -0 -0 -0 -0 -0 -0 -0 -0 -0 -0 -0 -0 -0 -0 -0 -0
-0 -0 -0 -0 -0 -0 -0 -0 -0 -0 -0 -0 -0 -0 -0 -0 -0 -0 -0 -0 -0 -0 -0 -0 -0 -0 -0 -0 -0 -0 -0 -0 -0 -0 -0 -0 -0 -0 -0 -0 -0 -0 -0 -0 -0 -0 -0 -0 -0
-0 -0 -0 -0 -0 -0 -0 -0 -0 -0 -0 -0 -0 -0 -0 -0 -0 -0 -0 -0 -0 -0 -0 -0 -0 -0 -0 -0 -0 -0 -0 -0 -0 -0 -0 -0 -0 -0 -0 -0 -0 -0 -0 -0 -0 -2 -0 -0 -0
-0 -0 -0 -0 -0 -0 -0 -0 -0 -0 -0 -0 -0 -0 -0 -0 -0 -0 -0 -0 -0 -0 -0 -0 -0 -0 -0 -0 -0 -0 -0 -0 -0 -0 -0 -0 -0 -0 -0 -0 -0 -0 -0 -0 -0 -0 -0 -0 -0
-0 -0 -0 -0 -0 -0 -0 -0 -0 -0 -0 -0 -0 -0 -0 -0 -0 -0 -0 -0 -0 -0 -0 -0 -0 -0 -0 -0 -0 -0 -0 -0 -0 -0 -0 -0 -0 -0 -0 -0 -0 -0 -0 -0 -0 -0 -0 -0 -0
-0 -0 -0 -0 -0 -0 -0 -0 -0 -0 -0 -0 -0 -0 -0 -0 -0 -0 -0 -0 -0 -0 -0 -0 -0 -0 -0 -0 -0 -0 -0 -0 -0 -0 -0 -0 -0 -0 -0 -0 -0 -0 -0 -0 -0 -0 -0 -0 -0
-0 -0 -0 -0 -0 -0 -0 -0 -0 -0 -0 -0 -0 -0 -0 -0 -0 -0 -0 -0 -0 -0 -0 -0 -0 -0 -0 -0 -0 -0 -0 -0 -0 -0 -0 -0 -0 -0 -0 -0 -0 -0 -0 -0 -0 -0 -0 -0 -0
-0 -0 -0 -0 -0 -0 -0 -0 -0 -0 -0 -0 -0 -0 -0 -0 -0 -0 -0 -0 -0 -0 -0 -0 -0 -0 -0 -0 -0 -0 -0 -0 -0 -0 -0 -0 -0 -0 -0 -0 -0 -0 -0 -0 -0 -0 -0 -0 -0
-0 -0 -0 -0 -0 -0 -0 -0 -0 -0 -0 -0 -0 -0 -0 -0 -0 -0 -0 -0 -0 -0 -0 -0 -0 -0 -0 -0 -0 -0 -0 -0 -0 -0 -0 -0 -0 -0 -0 -0 -0 -0 -0 -0 -0 -0 -0 -0 -0
-0 -0 -0 -0 -0 -0 -0 -0 -0 -0 -0 -0 -0 -0 -0 -0 -0 -0 -0 -0 -0 -0 -0 -0 -0 -0 -0 -0 -0 -0 -0 -0 -0 -0 -0 -0 -0 -0 -0 -0 -0 -0 -0 -0 -0 -0 -0 -0 -0
-0 -0 -0 -0 -0 -0 -0 -0 -0 -0 -0 -0 -0 -0 -0 -0 -0 -0 -0 -0 -0 -0 -0 -0 -0 -0 -0 -0 -0 -0 -0 -0 -0 -0 -0 -0 -0 -0 -0 -0 -0 -0 -0 -0 -0 -0 -0 -0 -0
-0 -0 -0 -0 -0 -0 -0 -0 -0 -0 -0 -0 -0 -0 -0 -0 -0 -0 -0 -0 -0 -0 -0 -0 -0 -0 -0 -0 -0 -0 -0 -0 -0 -0 -0 -0 -0 -0 -0 -0 -0 -0 -0 -0 -0 -0 -0 -0 -0
Wind_Speed
22 20 15 15 15 16 14 11 11 11 11 13 11 12 12 13 11 13 14 12 10 9 10 10 10 10 11 11 12 12 13 15 16 17 17 16 16 15 15 15 15 14 14 14 14 15 15 16 17
20 16 16 14 14 15 13 10 6 9 11 14 14 13 14 14 14 15 14 11 11 11 11 11 11 10 11 11 11 11 12 13 14 14 15 15 14 13 13 13 13 13 13 13 13 13 14 14 15
16 17 14 14 13 13 11 9 7 10 12 12 12 14 14 14 15 14 14 12 11 11 11 12 12 12 12 12 12 13 12 12 13 13 13 13 13 12 12 11 11 11 11 11 12 12 13 13 13
16 15 15 15 13 11 12 8 10 11 9 11 11 13 14 19 15 13 13 12 11 11 11 12 12 13 13 13 13 14 14 13 13 13 12 12 11 11 11 10 10 10 10 11 11 12 13 13 13
17 15 16 17 13 12 11 6 8 7 8 7 9 11 14 17 14 14 13 12 12 11 12 12 13 14 14 14 14 15 15 16 16 15 13 12 11 10 10 10 10 10 10 10 10 11 11 12 12
15 14 18 17 14 12 11 5 3 5 7 7 8 10 13 15 13 13 13 13 12 12 12 13 14 15 15 16 16 16 16 17 17 17 16 16 15 14 12 11 10 9 9 10 11 11 11 11 11
14 15 17 18 17 17 11 5 3 2 5 6 7 10 11 11 11 12 12 13 13 14 13 14 15 16 16 17 18 18 18 19 19 19 18 18 18 16 14 14 14 14 14 12 11 11 12 11 10
13 15 17 17 18 17 11 7 2 2 6 6 9 10 7 6 10 11 11 12 14 15 15 16 16 17 17 18 18 19 19 19 20 20 21 21 21 20 20 18 18 18 17 15 15 14 12 11 13
13 17 17 18 18 18 12 9 3 7 3 9 12 10 7 9 9 9 10 11 13 15 16 17 17 18 18 19 19 19 20 20 21 22 23 22 21 21 21 20 20 21 21 20 19 18 17 18 17
15 17 16 15 16 18 14 8 5 7 5 11 10 8 7 6 6 7 8 10 12 14 17 18 20 20 20 20 20 21 21 21 22 23 23 22 21 21 20 20 21 22 22 22 22 21 22 22 21
17 20 16 16 14 16 14 12 10 7 8 8 4 1 3 2 4 5 8 10 12 14 17 19 20 21 21 21 21 21 21 21 22 23 23 22 22 21 21 21 22 23 24 23 23 24 24 23 22
24 19 19 19 16 17 15 12 12 11 14 10 3 3 1 1 3 5 7 9 12 15 18 20 21 22 22 21 21 21 20 21 21 23 23 22 22 22 22 22 23 25 25 25 25 25 24 23 23
24 22 22 23 21 17 16 15 15 15 11 6 4 4 2 3 5 7 7 10 12 15 18 20 21 21 21 21 20 20 20 20 21 22 23 23 22 22 22 23 24 25 26 26 26 26 26 26 26
24 25 24 22 22 17 17 18 16 15 8 6 6 6 6 6 6 7 8 10 12 14 17 18 20 20 19 19 19 19 20 20 20 21 23 23 23 23 23 24 25 25 27 27 27 28 29 29 29
24 31 26 21 19 20 18 26 22 14 8 9 10 10 10 10 10 9 9 10 11 13 15 18 19 19 19 18 18 18 19 20 20 21 22 23 23 23 23 24 25 26 27 28 29 30 31 32 34
27 27 31 22 18 20 19 31 21 13 12 14 14 13 12 12 11 10 8 9 11 12 15 16 17 16 17 16 17 18 19 19 20 21 22 23 23 24 24 24 26 27 28 29 31 32 34 34 35
27 33 32 30 20 20 21 30 19 14 16 16 17 16 15 13 13 11 9 9 10 11 13 15 16 16 15 15 16 17 19 19 20 21 22 23 24 24 24 25 26 27 27 29 31 32 33 34 37
32 32 31 31 23 22 27 29 24 17 17 19 19 18 16 15 14 10 8 8 10 12 13 14 15 15 13 13 15 17 18 19 21 22 23 24 24 25 25 25 27 27 28 30 31 32 33 32 38
31 31 33 29 24 28 30 33 28 24 20 20 21 20 19 17 15 11 8 9 10 12 13 14 14 14 11 13 15 17 18 19 20 22 23 24 25 25 26 27 28 29 29 31 32 34 36 35 40
31 34 36 35 31 31 35 41 30 27 24 22 22 23 21 18 16 13 10 9 10 12 13 14 15 14 12 13 14 15 16 18 19 21 22 24 25 26 26 28 28 29 30 32 33 35 36 34 38
31 31 33 35 34 34 38 58 36 31 28 25 23 24 23 21 18 14 12 10 12 11 12 13 14 13 12 12 13 14 15 18 20 22 23 24 25 26 27 28 29 30 31 33 33 35 36 37 35
40 28 31 33 33 38 21 54 33 26 26 25 23 21 20 20 18 16 14 13 12 12 12 12 12 12 13 11 12 15 17 18 20 21 22 23 25 26 27 28 29 31 32 33 33 33 34 34 36
37 28 30 31 34 37 33 37 41 24 27 25 22 21 20 20 20 19 17 15 13 11 11 12 11 12 12 12 12 14 16 16 18 19 21 23 25 26 27 28 30 31 32 32 33 33 33 32 32
28 33 34 32 32 43 36 30 59 35 29 26 23 21 21 21 20 20 18 15 12 12 12 10 10 11 11 11 13 13 14 16 18 20 22 23 25 26 28 29 31 31 32 33 33 32 32 32 30
27 31 41 42 40 48 31 32 40 33 26 23 20 20 21 21 21 21 20 17 14 12 10 9 9 9 9 10 12 13 14 16 18 20 21 23 26 28 29 30 30 31 32 32 32 31 32 32 30
34 32 39 47 47 49 34 44 42 32 30 28 24 20 19 20 20 21 20 18 15 12 10 9 8 8 8 9 11 12 14 16 17 19 20 22 25 27 28 29 29 30 30 30 30 30 31 31 30
36 37 34 42 42 43 40 43 42 37 33 29 26 22 21 20 21 20 19 17 15 12 10 9 8 8 8 8 10 12 14 15 16 18 20 22 24 26 27 28 28 28 29 29 28 29 30 28 28
33 31 36 34 48 52 48 49 48 37 31 31 29 27 25 22 20 19 19 18 15 12 10 9 8 7 8 8 10 12 13 14 15 17 19 22 24 26 26 26 27 27 28 28 28 28 28 28 28
38 41 40 38 39 51 51 47 40 44 43 42 40 34 28 24 21 19 18 16 14 12 11 9 8 8 8 9 10 11 13 14 15 17 18 21 24 24 24 24 25 26 28 28 28 27 27 28 27
41 42 36 46 49 44 46 53 37 39 39 34 31 26 23 20 18 17 17 16 15 13 11 9 8 8 8 8 9 11 12 12 14 16 18 20 22 22 23 23 24 25 26 28 27 26 26 26 26
Wind_Direction
348 1 24 19 9 4 354 16 29 33 39 45 50 29 30 23 15 1 14 17 46 48 32 6 11 15 33 35 32 32 34 39 46 50 53 57 58 59 61 63 61 58 58 57 54 48 43 40 39
357 13 10 12 1 353 356 18 38 40 56 60 41 28 16 9 6 1 1 31 34 27 13 351 345 1 22 26 17 25 31 33 40 44 44 48 50 51 51 53 51 49 50 49 44 40 43 44 44
10 7 360 359 355 354 0 22 44 78 70 28 36 32 29 14 3 5 9 12 17 6 0 346 342 348 357 8 4 4 16 24 27 28 31 37 39 39 39 39 41 37 34 36 32 28 29 33 39
2 360 359 342 342 0 5 37 83 100 18 19 55 28 23 343 356 4 15 20 19 0 349 346 344 344 348 347 345 345 346 356 4 9 16 21 26 28 27 26 27 29 27 23 20 17 13 12 16
357 354 335 332 333 346 1 29 104 81 35 36 28 22 10 352 15 16 16 15 16 1 345 342 341 341 337 336 340 342 343 340 344 350 357 2 7 10 11 14 10 11 11 13 13 7 7 6 7
349 352 328 321 324 339 346 29 103 10 16 26 33 27 9 357 27 27 28 18 4 358 345 338 336 337 337 335 333 336 336 337 338 342 343 345 348 350 352 356 1 3 2 0 356 355 356 357 359
340 333 323 319 316 324 340 32 160 356 12 15 43 7 9 25 38 47 38 28 15 359 349 341 337 336 335 334 332 332 332 332 334 337 338 336 337 340 342 342 342 343 342 345 347 348 345 345 346
342 334 320 318 309 313 333 345 9 333 338 38 3 354 8 60 58 48 37 26 14 1 350 342 341 339 339 335 333 334 335 335 334 331 326 326 325 326 326 330 331 331 332 336 337 337 340 341 340
337 319 314 311 306 313 327 320 357 351 5 335 333 350 26 91 72 47 29 15 7 359 352 349 346 342 339 336 333 331 330 331 328 325 323 323 324 323 324 327 326 326 326 327 328 329 330 329 330
315 310 311 319 315 311 317 309 302 316 305 320 332 4 79 81 55 35 12 4 2 358 351 348 345 342 339 336 332 330 328 327 325 322 322 324 325 326 329 330 329 329 327 328 326 326 323 324 323
313 302 308 314 321 317 309 306 307 294 279 288 271 119 111 79 25 18 5 354 350 350 348 345 344 344 341 338 335 330 327 325 325 324 323 323 323 325 326 326 326 326 326 326 327 327 325 326 325
302 306 303 304 311 313 305 303 301 293 305 296 257 169 161 162 339 351 356 352 348 345 342 339 340 340 340 340 338 337 337 332 327 325 324 324 323 323 324 324 323 322 322 324 324 325 326 327 326
300 302 305 300 302 301 303 296 298 295 311 301 273 262 228 281 314 337 348 349 349 343 342 344 346 343 343 343 342 343 343 341 334 330 327 325 324 324 324 323 322 322 321 322 322 322 322 322 322
306 302 301 301 299 297 292 295 294 299 296 281 250 254 267 281 296 314 326 336 339 346 344 347 347 346 346 346 346 346 346 345 341 335 332 330 328 324 325 324 324 324 322 321 322 320 319 318 318
304 295 299 297 299 295 289 285 285 289 270 259 254 263 273 282 290 298 314 327 337 345 347 346 347 350 351 352 352 350 346 345 343 341 339 337 334 331 329 327 325 324 324 322 321 319 318 315 315
301 300 290 298 291 294 284 280 283 275 261 258 260 262 266 276 283 293 307 323 333 345 344 347 352 356 356 359 358 354 350 349 347 345 342 340 338 336 334 331 329 326 325 323 322 320 317 317 316
294 289 292 294 288 289 280 286 278 266 259 257 259 260 261 268 277 284 301 317 329 339 345 346 353 359 1 0 357 354 351 348 347 345 342 340 340 339 339 336 334 333 332 330 328 326 324 321 319
289 289 291 290 299 289 282 280 287 273 259 251 254 259 256 258 263 272 289 308 320 330 339 342 349 356 2 2 359 356 353 349 346 343 342 340 339 339 339 338 336 336 336 335 333 330 329 327 323
292 291 290 294 297 293 287 285 283 281 267 264 260 257 255 256 265 268 276 294 310 322 329 332 339 348 358 354 347 345 344 344 344 344 343 342 342 341 340 339 337 337 336 335 333 328 326 325 324
286 288 289 292 293 292 290 286 286 281 270 256 250 251 251 256 253 254 261 274 296 315 325 328 332 339 342 345 349 345 347 349 348 346 344 343 342 342 342 341 341 341 337 335 333 331 327 326 327
285 285 290 290 295 292 292 270 283 281 278 264 263 254 255 247 244 241 245 260 288 303 317 323 330 335 340 348 353 352 349 342 338 340 342 344 344 344 344 343 343 341 340 337 335 333 331 326 329
285 288 289 291 293 289 294 281 287 283 273 264 260 249 243 238 240 242 243 259 278 294 308 317 328 336 339 344 343 339 337 337 339 340 342 342 345 345 345 345 346 343 342 340 338 337 334 332 328
285 294 291 290 289 291 281 287 295 283 278 268 256 253 244 237 236 240 248 258 274 285 297 308 320 331 339 345 349 350 350 349 347 345 344 344 344 346 346 347 345 344 343 342 341 339 338 337 333
288 289 290 289 287 281 282 278 256 283 281 278 264 249 242 240 242 247 250 255 265 277 288 298 311 324 335 341 346 350 351 349 346 344 344 344 345 346 346 346 345 345 345 345 345 345 344 341 338
287 288 284 282 277 279 287 277 260 302 299 289 275 262 253 248 246 245 240 246 252 260 272 286 300 314 328 337 343 348 350 349 346 345 344 344 344 345 346 346 346 347 348 350 351 351 349 347 344
278 274 277 282 281 283 280 277 282 296 292 291 287 279 264 255 252 245 236 239 244 249 257 270 283 301 317 332 341 347 349 350 350 350 349 348 348 347 347 349 350 350 353 355 355 354 352 351 349
284 276 279 281 282 287 283 283 287 287 289 291 289 284 274 263 256 249 240 237 237 235 239 250 270 289 307 324 338 343 347 350 351 352 353 351 349 348 350 353 354 356 356 357 357 354 353 354 353
279 295 287 281 281 279 278 277 278 291 295 295 290 286 282 276 265 255 242 237 233 229 236 251 264 280 301 317 332 339 343 349 353 354 352 351 349 352 356 357 358 359 359 359 358 356 356 353 352
290 285 282 284 280 281 282 279 285 284 284 284 285 285 282 278 270 260 249 233 227 232 237 245 261 278 294 310 325 334 340 345 350 353 353 351 352 356 360 0 360 0 0 359 360 359 356 354 354
284 284 288 281 280 279 281 279 287 291 291 293 294 295 286 280 273 264 247 229 228 230 235 242 256 273 292 309 326 334 338 346 353 353 352 353 356 358 2 3 2 4 4 3 2 0 359 358 356